| time (UTC) | temp F | wind direction | speed MPH | gust MPH | rain 1hr in | rain 24hr in | rain mn in | humidity % | barometer mb |
| 20260902191541 | 73 | 346 | 1.0 | 2.0 | 0.00 | 0.00 | 0.00 | 57 | 1020.3 |
| 20260902190034 | 75 | 348 | 2.0 | 4.0 | 0.00 | 0.00 | 0.00 | 55 | 1020.1 |
| 20260902184541 | 75 | 346 | 2.0 | 6.0 | 0.00 | 0.00 | 0.00 | 54 | 1019.9 |
| 20260902183040 | 76 | 323 | 3.0 | 5.0 | 0.00 | 0.00 | 0.00 | 53 | 1019.7 |
| 20260902181533 | 77 | 302 | 3.0 | 6.0 | 0.00 | 0.00 | 0.00 | 51 | 1019.7 |
| 20260902180035 | 78 | 332 | 2.0 | 5.0 | 0.00 | 0.00 | 0.00 | 50 | 1019.6 |
| 20260902174544 | 79 | 344 | 3.0 | 6.0 | 0.00 | 0.00 | 0.00 | 48 | 1019.4 |
| 20260902173050 | 80 | 342 | 3.0 | 6.0 | 0.00 | 0.00 | 0.00 | 47 | 1019.3 |
| 20260902171537 | 80 | 9 | 3.0 | 6.0 | 0.00 | 0.00 | 0.00 | 47 | 1019.3 |
| 20260902170031 | 80 | 355 | 2.0 | 5.0 | 0.00 | 0.00 | 0.00 | 46 | 1019.3 |
| 20260902164530 | 81 | 40 | 0.0 | 4.0 | 0.00 | 0.00 | 0.00 | 45 | 1019.2 |
| 20260902163028 | 82 | 49 | 2.0 | 6.0 | 0.00 | 0.00 | 0.00 | 44 | 1019.2 |
| 20260902161528 | 83 | 44 | 0.0 | 6.0 | 0.00 | 0.00 | 0.00 | 43 | 1019.2 |
| 20260902160039 | 83 | 49 | 2.0 | 5.0 | 0.00 | 0.00 | 0.00 | 43 | 1019.3 |
| 20260902154601 | 83 | 35 | 2.0 | 5.0 | 0.00 | 0.00 | 0.00 | 41 | 1019.4 |
| 20260902153100 | 83 | 321 | 3.0 | 8.0 | 0.00 | 0.00 | 0.00 | 40 | 1019.4 |
| 20260902151559 | 83 | 5 | 4.0 | 6.0 | 0.00 | 0.00 | 0.00 | 41 | 1019.4 |
| 20260902150058 | 83 | 282 | 4.0 | 6.0 | 0.00 | 0.00 | 0.00 | 41 | 1019.3 |
| 20260902144559 | 82 | 296 | 1.0 | 5.0 | 0.00 | 0.00 | 0.00 | 43 | 1019.5 |
| 20260902143057 | 82 | 244 | 1.0 | 3.0 | 0.00 | 0.00 | 0.00 | 42 | 1019.4 |
| 20260902141608 | 84 | 238 | 1.0 | 6.0 | 0.00 | 0.00 | 0.00 | 39 | 1019.3 |
| 20260902140057 | 85 | 170 | 1.0 | 4.0 | 0.00 | 0.00 | 0.00 | 39 | 1019.4 |
| 20260902134555 | 85 | 302 | 5.0 | 8.0 | 0.00 | 0.00 | 0.00 | 39 | 1019.6 |
| 20260902133057 | 85 | 83 | 3.0 | 5.0 | 0.00 | 0.00 | 0.00 | 41 | 1019.5 |
| 20260902131555 | 84 | 275 | 4.0 | 8.0 | 0.00 | 0.00 | 0.00 | 40 | 1019.6 |
| 20260902130052 | 84 | 255 | 2.0 | 5.0 | 0.00 | 0.00 | 0.00 | 42 | 1019.6 |
| 20260902124601 | 83 | 220 | 1.0 | 7.0 | 0.00 | 0.00 | 0.00 | 40 | 1019.7 |
| 20260902123114 | 82 | 234 | 3.0 | 6.0 | 0.00 | 0.00 | 0.00 | 42 | 1020.0 |
| 20260902121549 | 82 | 198 | 2.0 | 5.0 | 0.00 | 0.00 | 0.00 | 42 | 1020.1 |
| 20260902120043 | 82 | 307 | 3.0 | 8.0 | 0.00 | 0.00 | 0.00 | 42 | 1020.2 |
| 20260902114545 | 82 | 355 | 4.0 | 7.0 | 0.00 | 0.00 | 0.00 | 43 | 1020.3 |
| 20260902113037 | 81 | 15 | 0.0 | 5.0 | 0.00 | 0.00 | 0.00 | 47 | 1020.4 |
| 20260902111544 | 80 | 332 | 3.0 | 6.0 | 0.00 | 0.00 | 0.00 | 47 | 1020.4 |
| 20260902110037 | 80 | 317 | 1.0 | 6.0 | 0.00 | 0.00 | 0.00 | 48 | 1020.5 |
| 20260902104529 | 78 | 17 | 2.0 | 6.0 | 0.00 | 0.00 | 0.00 | 50 | 1020.6 |
| 20260902103029 | 77 | 31 | 2.0 | 5.0 | 0.00 | 0.00 | 0.00 | 52 | 1020.8 |
| 20260902101522 | 76 | 329 | 2.0 | 5.0 | 0.00 | 0.00 | 0.00 | 55 | 1020.8 |
| 20260902100120 | 75 | 315 | 2.0 | 6.0 | 0.00 | 0.00 | 0.00 | 57 | 1020.9 |
| 20260902094517 | 75 | 305 | 1.0 | 4.0 | 0.00 | 0.00 | 0.00 | 57 | 1020.9 |
| 20260902093015 | 74 | 165 | 0.0 | 5.0 | 0.00 | 0.00 | 0.00 | 61 | 1020.9 |
| 20260902091515 | 72 | 248 | 1.0 | 4.0 | 0.00 | 0.00 | 0.00 | 61 | 1021.0 |
| 20260902090010 | 71 | 44 | 0.0 | 3.0 | 0.00 | 0.00 | 0.00 | 65 | 1020.8 |
| 20260902084502 | 69 | 40 | 0.0 | 3.0 | 0.00 | 0.00 | 0.00 | 68 | 1020.8 |
| 20260902083100 | 69 | 181 | 1.0 | 2.0 | 0.00 | 0.00 | 0.00 | 71 | 1020.9 |
| 20260902081555 | 66 | 246 | 0.0 | 3.0 | 0.00 | 0.00 | 0.00 | 76 | 1020.8 |
| 20260902080053 | 65 | 69 | 0.0 | 3.0 | 0.00 | 0.00 | 0.00 | 79 | 1020.6 |
| 20260902074547 | 64 | 74 | 0.0 | 0.0 | 0.00 | 0.00 | 0.00 | 81 | 1020.5 |
| 20260902073047 | 62 | 18 | 0.0 | 3.0 | 0.00 | 0.00 | 0.00 | 82 | 1020.6 |
| 20260902071547 | 61 | 292 | 2.0 | 5.0 | 0.00 | 0.00 | 0.00 | 85 | 1020.5 |
| 20260902070044 | 61 | 302 | 3.0 | 6.0 | 0.00 | 0.00 | 0.00 | 87 | 1020.5 |
| 20260902064541 | 60 | 263 | 0.0 | 0.0 | 0.00 | 0.00 | 0.00 | 87 | 1020.0 |
| 20260902063035 | 59 | 217 | 0.0 | 0.0 | 0.00 | 0.00 | 0.00 | 87 | 1019.8 |
| 20260902061531 | 57 | 160 | 0.0 | 0.0 | 0.00 | 0.00 | 0.00 | 89 | 1019.6 |
| 20260902060030 | 56 | 160 | 0.0 | 0.0 | 0.00 | 0.00 | 0.00 | 90 | 1019.6 |
| 20260902054526 | 56 | 160 | 0.0 | 0.0 | 0.00 | 0.00 | 0.00 | 90 | 1019.6 |
| 20260902053025 | 55 | 147 | 1.0 | 3.0 | 0.00 | 0.00 | 0.00 | 91 | 1019.4 |
| 20260902051521 | 55 | 106 | 0.0 | 0.0 | 0.00 | 0.00 | 0.00 | 91 | 1019.3 |
| 20260902050020 | 55 | 119 | 0.0 | 0.0 | 0.00 | 0.00 | 0.00 | 90 | 1019.5 |
| 20260902044519 | 55 | 119 | 0.0 | 0.0 | 0.00 | 0.00 | 0.00 | 91 | 1019.5 |
| 20260902043018 | 55 | 119 | 0.0 | 0.0 | 0.00 | 0.00 | 0.00 | 91 | 1019.5 |
| 20260902041537 | 55 | 119 | 0.0 | 0.0 | 0.00 | 0.00 | 0.00 | 92 | 1019.4 |
| 20260902040017 | 54 | 141 | 0.0 | 0.0 | 0.00 | 0.00 | 0.00 | 91 | 1019.4 |
| 20260902034516 | 54 | 78 | 0.0 | 0.0 | 0.00 | 0.00 | 0.00 | 91 | 1019.4 |
| 20260902033015 | 54 | 78 | 0.0 | 0.0 | 0.00 | 0.00 | 0.00 | 91 | 1019.3 |
| 20260902031515 | 54 | 78 | 0.0 | 0.0 | 0.00 | 0.00 | 0.00 | 90 | 1019.2 |
| 20260902030013 | 54 | 78 | 0.0 | 0.0 | 0.00 | 0.00 | 0.00 | 91 | 1019.2 |
| 20260902024512 | 54 | 78 | 0.0 | 0.0 | 0.00 | 0.00 | 0.00 | 90 | 1019.2 |
| 20260902023013 | 55 | 78 | 0.0 | 1.0 | 0.00 | 0.00 | 0.00 | 90 | 1019.2 |
| 20260902021513 | 55 | 78 | 1.0 | 3.0 | 0.00 | 0.00 | 0.00 | 90 | 1019.2 |
| 20260902020018 | 55 | 109 | 0.0 | 0.0 | 0.00 | 0.00 | 0.00 | 89 | 1019.2 |
| 20260902014512 | 55 | 109 | 0.0 | 2.0 | 0.00 | 0.00 | 0.00 | 88 | 1019.3 |
| 20260902013009 | 55 | 123 | 0.0 | 3.0 | 0.00 | 0.00 | 0.00 | 89 | 1019.2 |
| 20260902011506 | 56 | 126 | 0.0 | 3.0 | 0.00 | 0.00 | 0.00 | 89 | 1019.2 |
| 20260902010011 | 56 | 127 | 0.0 | 2.0 | 0.00 | 0.00 | 0.00 | 88 | 1019.3 |
| 20260902004504 | 56 | 119 | 0.0 | 2.0 | 0.00 | 0.00 | 0.00 | 88 | 1019.3 |
| 20260902003003 | 56 | 121 | 1.0 | 2.0 | 0.00 | 0.00 | 0.00 | 88 | 1019.3 |
| 20260902001501 | 56 | 5 | 0.0 | 0.0 | 0.00 | 0.00 | 0.00 | 88 | 1019.4 |
| 20260902000104 | 57 | 5 | 0.0 | 0.0 | 0.00 | 0.00 | 0.00 | 88 | 1019.3 |
| 20260901234600 | 57 | 5 | 0.0 | 0.0 | 0.00 | 0.00 | 0.00 | 86 | 1019.3 |
| 20260901233107 | 57 | 5 | 0.0 | 0.0 | 0.00 | 0.00 | 0.00 | 85 | 1019.2 |
| 20260901231554 | 58 | 5 | 0.0 | 0.0 | 0.00 | 0.00 | 0.00 | 85 | 1019.1 |
| 20260901230057 | 58 | 5 | 0.0 | 0.0 | 0.00 | 0.00 | 0.00 | 85 | 1019.1 |
| 20260901224551 | 59 | 5 | 0.0 | 0.0 | 0.00 | 0.00 | 0.00 | 84 | 1019.0 |
| 20260901223105 | 59 | 349 | 0.0 | 0.0 | 0.00 | 0.00 | 0.00 | 84 | 1019.1 |
| 20260901221548 | 60 | 349 | 0.0 | 0.0 | 0.00 | 0.00 | 0.00 | 82 | 1019.1 |
| 20260901220049 | 60 | 349 | 0.0 | 0.0 | 0.00 | 0.00 | 0.00 | 81 | 1019.0 |
| 20260901214546 | 61 | 349 | 0.0 | 0.0 | 0.00 | 0.00 | 0.00 | 80 | 1019.0 |
| 20260901213042 | 61 | 26 | 0.0 | 0.0 | 0.00 | 0.00 | 0.00 | 78 | 1019.0 |
| 20260901211542 | 62 | 26 | 0.0 | 0.0 | 0.00 | 0.00 | 0.00 | 77 | 1019.0 |
| 20260901210056 | 63 | 26 | 0.0 | 2.0 | 0.00 | 0.00 | 0.00 | 75 | 1019.2 |
| 20260901204543 | 63 | 26 | 0.0 | 0.0 | 0.00 | 0.00 | 0.00 | 74 | 1019.2 |
| 20260901203100 | 64 | 26 | 0.0 | 0.0 | 0.00 | 0.00 | 0.00 | 72 | 1019.3 |
| 20260901201540 | 65 | 26 | 0.0 | 0.0 | 0.00 | 0.00 | 0.00 | 70 | 1019.3 |
| 20260901200053 | 66 | 26 | 1.0 | 2.0 | 0.00 | 0.00 | 0.00 | 68 | 1019.1 |
| 20260901194544 | 67 | 26 | 1.0 | 3.0 | 0.00 | 0.00 | 0.00 | 66 | 1019.1 |
| 20260901193034 | 68 | 26 | 1.0 | 2.0 | 0.00 | 0.00 | 0.00 | 63 | 1019.0 |